Middlesboro, KY

7:04 PM CDT on April 23, 2018 (GMT -0500)
Middlesboro

Weather History for K1A6 - March, 2013

Change the Weather History Date:

Monday, March 4, 2013

  Actual Average (KLOZ) Record (KLOZ)
Temperature  
Mean Temperature 33 °F -  
Max Temperature 49 °F 57 °F 82 °F (1976)
Min Temperature 17 °F 34 °F 2 °F (1960)
Degree Days  
Heating Degree Days 32    
Moisture  
Dew Point 21 °F    
Average Humidity 65    
Maximum Humidity 93    
Minimum Humidity 30    
Precipitation  
Precipitation 0.00 in - - ()
Sea Level Pressure  
Sea Level Pressure 30.09 in    
Wind  
Wind Speed 1 mph (SSW)    
Max Wind Speed 8 mph    
Max Gust Speed -    
Visibility 10 miles    
Events      
Averages and records for this station are not official NWS values.
T = Trace of Precipitation, MM = Missing Value Source: NWS Daily Summary

Daily Weather History Graph

Daily Weather History Graph

Search for Another Location

Airport or City:

Astronomy

Mar. 04, 2013 Rise Set
Actual Time 6:01 AM CST 5:32 PM CST
Civil Twilight 5:35 AM CST 5:58 PM CST
Nautical Twilight 5:05 AM CST 6:28 PM CST
Astronomical Twilight 4:35 AM CST 6:58 PM CST
Moon 12:03 AM CST (3/4) 10:20 AM CST (3/4)
Length of Visible Light 12h 23m
Length of Day
11h 31m
Waning Gibbous, 52% of the Moon is Illuminated
Mar 4
Waning Gibbous
Mar 4
Last Quarter
Mar 11
New
Mar 19
First Quarter
Mar 27
Full

Hourly Weather History & Observations

Time (CST) Temp. Windchill Dew Point Humidity Pressure Visibility Wind Dir Wind Speed Gust Speed Precip Events Conditions
12:15 AM 22.5 °F - 19.4 °F 88% 30.10 in 10.0 mi Calm Calm - N/A   Clear
12:35 AM 21.0 °F - 18.7 °F 91% 30.11 in 10.0 mi Calm Calm - N/A   Clear
12:55 AM 21.2 °F - 18.9 °F 91% 30.11 in 10.0 mi Calm Calm - N/A   Clear
1:15 AM 20.5 °F - 18.5 °F 92% 30.11 in 10.0 mi Calm Calm - N/A   Clear
1:35 AM 20.1 °F - 18.1 °F 92% 30.11 in 10.0 mi Calm Calm - N/A   Clear
1:55 AM 20.3 °F - 18.1 °F 91% 30.12 in 10.0 mi Calm Calm - N/A   Clear
2:15 AM 19.4 °F - 17.6 °F 93% 30.13 in 10.0 mi Calm Calm - N/A   Clear
2:35 AM 19.4 °F - 17.6 °F 93% 30.12 in 10.0 mi Calm Calm - N/A   Clear
2:55 AM 19.2 °F - 17.6 °F 93% 30.12 in 10.0 mi Calm Calm - N/A   Clear
3:15 AM 18.9 °F - 16.9 °F 92% 30.12 in 10.0 mi Calm Calm - N/A   Clear
3:35 AM 18.9 °F - 16.9 °F 92% 30.13 in 10.0 mi Calm Calm - N/A   Clear
3:55 AM 18.7 °F - 16.7 °F 92% 30.14 in 10.0 mi Calm Calm - N/A   Clear
4:15 AM 17.8 °F - 15.8 °F 92% 30.14 in 10.0 mi Calm Calm - N/A   Clear
4:35 AM 18.3 °F - 16.5 °F 93% 30.15 in 10.0 mi Calm Calm - N/A   Clear
4:55 AM 18.0 °F - 16.0 °F 92% 30.16 in 10.0 mi Calm Calm - N/A   Clear
5:15 AM 18.0 °F - 15.8 °F 91% 30.17 in 10.0 mi Calm Calm - N/A   Clear
5:35 AM 17.2 °F - 15.3 °F 92% 30.17 in 10.0 mi Calm Calm - N/A   Clear
5:55 AM 17.4 °F - 15.6 °F 93% 30.18 in 10.0 mi Calm Calm - N/A   Clear
6:15 AM 17.4 °F - 15.6 °F 93% 30.18 in 10.0 mi Calm Calm - N/A   Clear
6:35 AM 17.4 °F - 15.4 °F 92% 30.18 in 10.0 mi Calm Calm - N/A   Clear
6:55 AM 18.5 °F - 16.3 °F 91% 30.18 in 10.0 mi Calm Calm - N/A   Clear
7:15 AM 19.8 °F - 17.8 °F 92% 30.18 in 10.0 mi Calm Calm - N/A   Clear
7:35 AM 20.8 °F - 18.5 °F 91% 30.18 in 10.0 mi Calm Calm - N/A   Clear
7:55 AM 23.0 °F - 20.3 °F 89% 30.19 in 10.0 mi Calm Calm - N/A   Clear
8:15 AM 24.6 °F - 19.9 °F 82% 30.19 in 10.0 mi Calm Calm - N/A   Clear
8:35 AM 26.4 °F - 20.7 °F 79% 30.18 in 10.0 mi Calm Calm - N/A   Clear
8:55 AM 28.9 °F - 21.4 °F 73% 30.18 in 10.0 mi Calm Calm - N/A   Clear
9:15 AM 31.1 °F - 21.7 °F 68% 30.17 in 10.0 mi Calm Calm - N/A   Clear
9:35 AM 34.2 °F 30.0 °F 21.2 °F 59% 30.17 in 10.0 mi ENE 4.6 mph - N/A   Clear
9:55 AM 36.3 °F - 20.1 °F 52% 30.16 in 10.0 mi Calm Calm - N/A   Clear
10:15 AM 37.4 °F 33.8 °F 17.8 °F 45% 30.15 in 10.0 mi ESE 4.6 mph - N/A   Clear
10:35 AM 37.8 °F 34.2 °F 16.0 °F 41% 30.15 in 10.0 mi SSE 4.6 mph - N/A   Clear
10:55 AM 39.0 °F 34.0 °F 14.4 °F 37% 30.15 in 10.0 mi South 6.9 mph - N/A   Clear
11:15 AM 39.9 °F 37.8 °F 16.0 °F 38% 30.14 in 10.0 mi ESE 3.5 mph - N/A   Clear
11:55 AM 43.2 °F 39.7 °F 18.3 °F 37% 30.11 in 10.0 mi ENE 5.8 mph - N/A   Clear
12:15 PM - - - N/A% - - North - - N/A   Unknown
12:55 PM 45.5 °F 44.2 °F 17.4 °F 33% 30.07 in - West 3.5 mph - N/A   Unknown
1:15 PM - - - N/A% 30.06 in 10.0 mi Calm Calm - N/A   Clear
1:35 PM - - - N/A% 30.05 in 10.0 mi South 4.6 mph - N/A   Mostly Cloudy
1:55 PM - - - N/A% 30.05 in 10.0 mi South 5.8 mph - N/A   Overcast
2:15 PM 49.1 °F - 18.5 °F 30% 30.05 in 10.0 mi South 3.5 mph - N/A   Overcast
2:35 PM 49.1 °F - 19.0 °F 30% 30.05 in 10.0 mi SSE 8.1 mph - N/A   Overcast
2:55 PM 49.8 °F - 19.4 °F 30% 30.03 in 10.0 mi SSW 8.1 mph - N/A   Overcast
3:15 PM 48.6 °F - 20.1 °F 33% 30.03 in 10.0 mi South 4.6 mph - N/A   Mostly Cloudy
3:35 PM 48.6 °F - 19.4 °F 32% 30.03 in 10.0 mi South 6.9 mph - N/A   Overcast
3:55 PM 48.2 °F - 19.9 °F 33% 30.03 in 10.0 mi South 5.8 mph - N/A   Overcast
4:15 PM 48.2 °F - 20.5 °F 33% 30.02 in 10.0 mi Calm Calm - N/A   Overcast
4:35 PM 47.7 °F - 20.5 °F 34% 30.02 in 10.0 mi SSW 5.8 mph - N/A   Overcast
4:55 PM 47.7 °F - 21.0 °F 35% 30.03 in 10.0 mi Calm Calm - N/A   Mostly Cloudy
5:15 PM 47.3 °F - 21.0 °F 35% 30.02 in 10.0 mi Calm Calm - N/A   Scattered Clouds
5:35 PM 46.8 °F - 21.2 °F 36% 30.02 in 10.0 mi Calm Calm - N/A   Clear
5:55 PM 46.2 °F - 20.8 °F 37% 30.02 in 10.0 mi Calm Calm - N/A   Clear
6:15 PM 43.2 °F - 25.5 °F 50% 30.02 in 10.0 mi Calm Calm - N/A   Clear
6:35 PM 41.9 °F - 25.7 °F 53% 30.02 in 10.0 mi Calm Calm - N/A   Clear
6:55 PM 40.1 °F - 27.0 °F 59% 30.02 in 10.0 mi Calm Calm - N/A   Clear
7:15 PM 41.0 °F - 25.5 °F 54% 30.00 in 10.0 mi Calm Calm - N/A   Clear
7:35 PM 39.7 °F 36.5 °F 26.8 °F 60% 30.00 in 10.0 mi West 4.6 mph - N/A   Clear
7:55 PM 40.6 °F 36.7 °F 25.7 °F 55% 30.01 in 10.0 mi WSW 5.8 mph - N/A   Scattered Clouds
8:35 PM 40.5 °F 36.5 °F 26.2 °F 57% 30.02 in 10.0 mi West 5.8 mph - N/A   Mostly Cloudy
8:55 PM 39.6 °F - 27.9 °F 63% 30.02 in 10.0 mi Calm Calm - N/A   Overcast
9:15 PM 40.3 °F - 26.8 °F 59% 30.03 in 10.0 mi Calm Calm - N/A   Mostly Cloudy
9:35 PM 40.3 °F - 27.7 °F 61% 30.03 in 10.0 mi Calm Calm - N/A   Overcast
9:55 PM 40.8 °F - 26.8 °F 57% 30.03 in 10.0 mi Calm Calm - N/A   Mostly Cloudy
10:15 PM 39.9 °F - 27.0 °F 60% 30.03 in 10.0 mi Calm Calm - N/A   Mostly Cloudy
10:35 PM 40.1 °F 38.0 °F 26.1 °F 57% 30.03 in 10.0 mi West 3.5 mph - N/A   Overcast
10:55 PM 39.0 °F 36.8 °F 27.1 °F 62% 30.02 in 10.0 mi West 3.5 mph - N/A   Scattered Clouds
11:15 PM 38.1 °F 35.7 °F 28.2 °F 68% 30.02 in 10.0 mi WNW 3.5 mph - N/A   Scattered Clouds
11:35 PM 38.7 °F 35.2 °F 26.4 °F 61% 30.01 in 10.0 mi WSW 4.6 mph - N/A   Mostly Cloudy
11:55 PM 37.2 °F - 27.5 °F 68% 30.01 in 10.0 mi Calm Calm - N/A   Mostly Cloudy